This is the latest recevied weather packets stored in our database for station/object KD8OZS. If no packets are shown the sender has not sent any weather packets the latest 10 day(s).
| Time | Temp. | Humidity | Pressure | Rain* | Wind** | Luminosity | Snow |
|---|---|---|---|---|---|---|---|
| 1788114560 | 25.56° C | 79% | 1013.9 hPa | 0 mm | - | 201 W/m² | - |
| 1788114255 | 25.56° C | 80% | 1013.9 hPa | 0 mm | - | 201 W/m² | - |
| 1788113951 | 25.56° C | 79% | 1014 hPa | 0 mm | - | 232 W/m² | - |
| 1788113647 | 25.56° C | 82% | 1014 hPa | 0 mm | - | 210 W/m² | - |
| 1788113341 | 25.56° C | 82% | 1014.1 hPa | 0 mm | - | 174 W/m² | - |
| 1788113041 | 25° C | 82% | 1014.1 hPa | 0 mm | - | 187 W/m² | - |
| 1788112740 | 25° C | 82% | 1014 hPa | 0 mm | - | 195 W/m² | - |
| 1788112440 | 25° C | 82% | 1014 hPa | 0 mm | - | 167 W/m² | - |
| 1788112135 | 25° C | 83% | 1014.3 hPa | 0 mm | - | 173 W/m² | - |
| 1788111831 | 25° C | 83% | 1014.2 hPa | 0 mm | - | 185 W/m² | - |
| 1788111525 | 25° C | 84% | 1013.9 hPa | 0 mm | - | 200 W/m² | - |
| 1788111221 | 25° C | 83% | 1014.2 hPa | 0 mm | - | 199 W/m² | - |
| 1788110917 | 25° C | 82% | 1014.1 hPa | 0 mm | - | 186 W/m² | - |
| 1788110613 | 25° C | 83% | 1014.3 hPa | 0 mm | - | 183 W/m² | - |
| 1788110308 | 25° C | 83% | 1014.2 hPa | 0 mm | - | 198 W/m² | - |
| 1788110004 | 25° C | 83% | 1014.3 hPa | 0 mm | - | 229 W/m² | - |
| 1788109699 | 25° C | 84% | 1014.4 hPa | 0 mm | - | 209 W/m² | - |
| 1788109398 | 25° C | 82% | 1014.2 hPa | 0 mm | - | 182 W/m² | - |
| 1788109097 | 25° C | 81% | 1014.5 hPa | 0 mm | - | 159 W/m² | - |
| 1788108793 | 25° C | 81% | 1014.6 hPa | 0 mm | - | 145 W/m² | - |
| 1788108489 | 25.56° C | 81% | 1014.5 hPa | 0 mm | - | 170 W/m² | - |
| 1788108185 | 25.56° C | 81% | 1014.6 hPa | 0 mm | - | 222 W/m² | - |
| 1788107882 | 25° C | 82% | 1014.5 hPa | 0 mm | - | 255 W/m² | - |
| 1788107577 | 25° C | 82% | 1014.9 hPa | 0 mm | - | 206 W/m² | - |
| 1788107271 | 25° C | 82% | 1014.8 hPa | 0 mm | - | 227 W/m² | - |
* Rain latest hour (hover to see other rain measurements)
** Current wind speed in m/s (hover to see current wind gust speed)